Time,TemperatureF,DewpointF,PressureIn,WindDirection,WindDirectionDegrees,WindSpeedMPH,WindSpeedGustMPH,Humidity,HourlyPrecipIn,Conditions,Clouds,dailyrainin,SoftwareType,DateUTC
2013-04-03 00:02:00,63.0,56.0,30.09,East,80,0.0,-999.0,78,-99.99,,,-99.99,,2013-04-03 10:02:00,
2013-04-03 00:12:00,63.0,56.0,30.09,East,80,0.0,-999.0,78,-99.99,,,-99.99,,2013-04-03 10:12:00,
2013-04-03 00:22:00,62.0,55.0,30.09,East,80,0.0,-999.0,78,-99.99,,,-99.99,,2013-04-03 10:22:00,
2013-04-03 00:33:00,62.0,55.0,30.08,East,86,1.0,-999.0,78,-99.99,,,-99.99,,2013-04-03 10:33:00,
2013-04-03 00:42:00,62.0,55.0,30.08,East,86,1.0,-999.0,78,-99.99,,,-99.99,,2013-04-03 10:42:00,
2013-04-03 00:52:00,62.0,55.0,30.08,East,81,1.0,-999.0,78,-99.99,,,-99.99,,2013-04-03 10:52:00,
2013-04-03 01:02:00,62.0,55.0,30.07,ENE,72,0.0,-999.0,79,-99.99,,,-99.99,,2013-04-03 11:02:00,
2013-04-03 01:12:00,62.0,55.0,30.07,ENE,72,0.0,-999.0,79,-99.99,,,-99.99,,2013-04-03 11:12:00,
2013-04-03 01:22:00,61.0,55.0,30.06,ENE,61,1.0,-999.0,80,-99.99,,,-99.99,,2013-04-03 11:22:00,
2013-04-03 01:32:00,60.0,54.0,30.06,ENE,61,1.0,-999.0,81,-99.99,,,-99.99,,2013-04-03 11:32:00,
2013-04-03 01:42:00,60.0,54.0,30.06,ENE,61,1.0,-999.0,81,-99.99,,,-99.99,,2013-04-03 11:42:00,
2013-04-03 01:52:00,60.0,54.0,30.06,ENE,68,1.0,-999.0,82,-99.99,,,-99.99,,2013-04-03 11:52:00,
2013-04-03 02:01:00,60.0,55.0,30.06,ENE,63,2.0,-999.0,83,-99.99,,,-99.99,,2013-04-03 12:01:00,
2013-04-03 02:12:00,60.0,55.0,30.06,ENE,63,2.0,-999.0,83,-99.99,,,-99.99,,2013-04-03 12:12:00,
2013-04-03 02:22:00,59.0,54.0,30.06,ENE,71,1.0,-999.0,82,-99.99,,,-99.99,,2013-04-03 12:22:00,
2013-04-03 02:32:00,59.0,54.0,30.05,ENE,68,1.0,-999.0,83,-99.99,,,-99.99,,2013-04-03 12:32:00,
2013-04-03 02:42:00,59.0,54.0,30.05,ENE,68,1.0,-999.0,83,-99.99,,,-99.99,,2013-04-03 12:42:00,
2013-04-03 02:52:00,59.0,54.0,30.05,ENE,63,1.0,-999.0,83,-99.99,,,-99.99,,2013-04-03 12:52:00,
2013-04-03 03:02:00,59.0,54.0,30.05,ENE,63,2.0,-999.0,83,-99.99,,,-99.99,,2013-04-03 13:02:00,
2013-04-03 03:12:00,59.0,54.0,30.05,ENE,63,2.0,-999.0,83,-99.99,,,-99.99,,2013-04-03 13:12:00,
2013-04-03 03:22:00,59.0,54.0,30.04,ENE,63,1.0,-999.0,83,-99.99,,,-99.99,,2013-04-03 13:22:00,
2013-04-03 03:32:00,59.0,54.0,30.04,ENE,63,0.0,-999.0,83,-99.99,,,-99.99,,2013-04-03 13:32:00,
2013-04-03 03:41:00,59.0,54.0,30.04,ENE,63,0.0,-999.0,83,-99.99,,,-99.99,,2013-04-03 13:41:00,
2013-04-03 03:52:00,59.0,54.0,30.03,ENE,61,1.0,-999.0,82,-99.99,,,-99.99,,2013-04-03 13:52:00,
2013-04-03 04:02:00,60.0,53.0,30.04,ENE,58,2.0,-999.0,79,-99.99,,,-99.99,,2013-04-03 14:02:00,
2013-04-03 04:12:00,60.0,53.0,30.04,ENE,58,2.0,-999.0,79,-99.99,,,-99.99,,2013-04-03 14:12:00,
2013-04-03 04:21:00,59.0,53.0,30.03,NE,53,1.0,-999.0,81,-99.99,,,-99.99,,2013-04-03 14:21:00,
2013-04-03 04:32:00,59.0,54.0,30.04,NE,53,1.0,-999.0,82,-99.99,,,-99.99,,2013-04-03 14:32:00,
2013-04-03 04:42:00,59.0,54.0,30.04,NE,53,1.0,-999.0,82,-99.99,,,-99.99,,2013-04-03 14:42:00,
2013-04-03 04:52:00,58.0,53.0,30.04,NE,53,1.0,-999.0,84,-99.99,,,-99.99,,2013-04-03 14:52:00,
2013-04-03 05:02:00,58.0,53.0,30.04,NE,53,1.0,-999.0,83,-99.99,,,-99.99,,2013-04-03 15:02:00,
2013-04-03 05:12:00,58.0,53.0,30.04,NE,53,1.0,-999.0,83,-99.99,,,-99.99,,2013-04-03 15:12:00,
2013-04-03 05:22:00,58.0,53.0,30.04,NE,53,1.0,-999.0,84,-99.99,,,-99.99,,2013-04-03 15:22:00,
2013-04-03 05:33:00,58.0,53.0,30.04,NE,53,1.0,-999.0,84,-99.99,,,-99.99,,2013-04-03 15:33:00,
2013-04-03 05:42:00,58.0,53.0,30.04,NE,53,1.0,-999.0,84,-99.99,,,-99.99,,2013-04-03 15:42:00,
2013-04-03 05:53:00,58.0,53.0,30.04,NE,53,0.0,-999.0,84,-99.99,,,-99.99,,2013-04-03 15:53:00,
2013-04-03 06:02:00,58.0,53.0,30.04,NE,53,1.0,-999.0,84,-99.99,,,-99.99,,2013-04-03 16:02:00,
2013-04-03 06:12:00,58.0,53.0,30.04,NE,53,1.0,-999.0,84,-99.99,,,-99.99,,2013-04-03 16:12:00,
2013-04-03 06:23:00,58.0,53.0,30.04,NE,53,2.0,-999.0,84,-99.99,,,-99.99,,2013-04-03 16:23:00,
2013-04-03 06:32:00,58.0,53.0,30.04,NE,53,2.0,-999.0,84,-99.99,,,-99.99,,2013-04-03 16:32:00,
2013-04-03 06:42:00,58.0,53.0,30.04,NE,53,2.0,-999.0,84,-99.99,,,-99.99,,2013-04-03 16:42:00,
2013-04-03 06:52:00,59.0,54.0,30.04,NE,53,2.0,-999.0,83,-99.99,,,-99.99,,2013-04-03 16:52:00,
2013-04-03 07:02:00,59.0,54.0,30.05,NE,54,2.0,-999.0,83,-99.99,,,-99.99,,2013-04-03 17:02:00,
2013-04-03 07:12:00,59.0,54.0,30.05,NE,54,2.0,-999.0,83,-99.99,,,-99.99,,2013-04-03 17:12:00,
2013-04-03 07:22:00,59.0,54.0,30.06,NE,54,2.0,-999.0,83,-99.99,,,-99.99,,2013-04-03 17:22:00,
2013-04-03 07:32:00,60.0,54.0,30.06,NE,54,2.0,-999.0,82,-99.99,,,-99.99,,2013-04-03 17:32:00,
2013-04-03 07:45:00,60.0,54.0,30.06,NE,54,2.0,-999.0,82,-99.99,,,-99.99,,2013-04-03 17:45:00,
2013-04-03 07:52:00,62.0,56.0,30.07,NE,54,1.0,-999.0,80,-99.99,,,-99.99,,2013-04-03 17:52:00,
2013-04-03 08:02:00,63.0,56.0,30.08,NE,54,1.0,-999.0,79,-99.99,,,-99.99,,2013-04-03 18:02:00,
2013-04-03 08:12:00,63.0,56.0,30.08,NE,54,1.0,-999.0,79,-99.99,,,-99.99,,2013-04-03 18:12:00,
2013-04-03 08:22:00,66.0,59.0,30.09,NE,54,0.0,-999.0,77,-99.99,,,-99.99,,2013-04-03 18:22:00,
2013-04-03 08:33:00,67.0,58.0,30.09,North,360,1.0,-999.0,73,-99.99,,,-99.99,,2013-04-03 18:33:00,
2013-04-03 08:42:00,67.0,58.0,30.09,North,360,1.0,-999.0,73,-99.99,,,-99.99,,2013-04-03 18:42:00,
2013-04-03 08:52:00,68.0,57.0,30.09,NNW,331,1.0,-999.0,68,-99.99,,,-99.99,,2013-04-03 18:52:00,
2013-04-03 09:02:00,69.0,58.0,30.10,NW,312,2.0,-999.0,67,-99.99,,,-99.99,,2013-04-03 19:02:00,
2013-04-03 09:11:00,69.0,58.0,30.10,NW,312,2.0,-999.0,67,-99.99,,,-99.99,,2013-04-03 19:11:00,
2013-04-03 09:21:00,70.0,58.0,30.10,NW,319,2.0,-999.0,65,-99.99,,,-99.99,,2013-04-03 19:21:00,
2013-04-03 09:32:00,71.0,59.0,30.10,NW,306,1.0,-999.0,67,-99.99,,,-99.99,,2013-04-03 19:32:00,
2013-04-03 09:42:00,71.0,59.0,30.10,NW,306,1.0,-999.0,67,-99.99,,,-99.99,,2013-04-03 19:42:00,
2013-04-03 09:52:00,72.0,60.0,30.10,SSE,158,1.0,-999.0,65,-99.99,,,-99.99,,2013-04-03 19:52:00,
2013-04-03 10:02:00,72.0,59.0,30.10,NW,320,2.0,-999.0,64,-99.99,,,-99.99,,2013-04-03 20:02:00,
2013-04-03 10:12:00,72.0,59.0,30.10,NW,320,2.0,-999.0,64,-99.99,,,-99.99,,2013-04-03 20:12:00,
2013-04-03 10:22:00,73.0,62.0,30.09,South,188,3.0,-999.0,68,-99.99,,,-99.99,,2013-04-03 20:22:00,
2013-04-03 10:32:00,72.0,61.0,30.09,SW,219,3.0,-999.0,68,-99.99,,,-99.99,,2013-04-03 20:32:00,
2013-04-03 10:42:00,72.0,61.0,30.09,SW,219,3.0,-999.0,68,-99.99,,,-99.99,,2013-04-03 20:42:00,
2013-04-03 10:52:00,72.0,61.0,30.09,SW,219,3.0,-999.0,68,-99.99,,,-99.99,,2013-04-03 20:52:00,
2013-04-03 11:02:00,73.0,61.0,30.09,SW,221,3.0,-999.0,67,-99.99,,,-99.99,,2013-04-03 21:02:00,
2013-04-03 11:12:00,73.0,61.0,30.09,SW,221,3.0,-999.0,67,-99.99,,,-99.99,,2013-04-03 21:12:00,
2013-04-03 11:22:00,73.0,61.0,30.09,NNW,338,3.0,-999.0,67,-99.99,,,-99.99,,2013-04-03 21:22:00,
2013-04-03 11:32:00,74.0,62.0,30.09,West,278,4.0,-999.0,67,-99.99,,,-99.99,,2013-04-03 21:32:00,
2013-04-03 11:42:00,74.0,62.0,30.09,West,278,4.0,-999.0,67,-99.99,,,-99.99,,2013-04-03 21:42:00,
2013-04-03 11:52:00,73.0,61.0,30.08,WNW,301,4.0,-999.0,66,-99.99,,,-99.99,,2013-04-03 21:52:00,
2013-04-03 12:02:00,74.0,62.0,30.08,West,271,4.0,-999.0,66,-99.99,,,-99.99,,2013-04-03 22:02:00,
2013-04-03 12:12:00,74.0,62.0,30.08,West,271,4.0,-999.0,66,-99.99,,,-99.99,,2013-04-03 22:12:00,
2013-04-03 12:22:00,74.0,61.0,30.08,WSW,254,4.0,-999.0,65,-99.99,,,-99.99,,2013-04-03 22:22:00,
2013-04-03 12:32:00,74.0,62.0,30.07,SSW,213,5.0,-999.0,66,-99.99,,,-99.99,,2013-04-03 22:32:00,
2013-04-03 12:42:00,74.0,62.0,30.07,SSW,213,5.0,-999.0,66,-99.99,,,-99.99,,2013-04-03 22:42:00,
2013-04-03 12:52:00,75.0,61.0,30.07,WSW,244,4.0,-999.0,62,-99.99,,,-99.99,,2013-04-03 22:52:00,
2013-04-03 13:02:00,74.0,61.0,30.07,WSW,246,5.0,-999.0,63,-99.99,,,-99.99,,2013-04-03 23:02:00,
2013-04-03 13:12:00,74.0,61.0,30.07,WSW,246,5.0,-999.0,63,-99.99,,,-99.99,,2013-04-03 23:12:00,
2013-04-03 13:21:00,74.0,62.0,30.06,WSW,253,5.0,-999.0,67,-99.99,,,-99.99,,2013-04-03 23:21:00,
2013-04-03 13:32:00,74.0,62.0,30.06,SSW,207,5.0,-999.0,66,-99.99,,,-99.99,,2013-04-03 23:32:00,
2013-04-03 13:42:00,74.0,62.0,30.06,SSW,207,5.0,-999.0,66,-99.99,,,-99.99,,2013-04-03 23:42:00,
2013-04-03 13:52:00,75.0,63.0,30.06,WSW,252,5.0,-999.0,66,-99.99,,,-99.99,,2013-04-03 23:52:00,
2013-04-03 14:02:00,74.0,61.0,30.05,South,171,4.0,-999.0,64,-99.99,,,-99.99,,2013-04-04 00:02:00,
2013-04-03 14:12:00,74.0,61.0,30.05,South,171,4.0,-999.0,64,-99.99,,,-99.99,,2013-04-04 00:12:00,
2013-04-03 14:22:00,75.0,62.0,30.05,South,190,4.0,-999.0,63,-99.99,,,-99.99,,2013-04-04 00:22:00,
2013-04-03 14:32:00,75.0,62.0,30.04,West,263,4.0,-999.0,64,-99.99,,,-99.99,,2013-04-04 00:32:00,
2013-04-03 14:42:00,75.0,62.0,30.04,West,263,4.0,-999.0,64,-99.99,,,-99.99,,2013-04-04 00:42:00,
2013-04-03 14:52:00,74.0,61.0,30.03,West,260,3.0,-999.0,63,-99.99,,,-99.99,,2013-04-04 00:52:00,
2013-04-03 15:02:00,74.0,61.0,30.03,West,273,3.0,-999.0,65,-99.99,,,-99.99,,2013-04-04 01:02:00,
2013-04-03 15:11:00,74.0,61.0,30.03,West,273,3.0,-999.0,65,-99.99,,,-99.99,,2013-04-04 01:11:00,
2013-04-03 15:22:00,73.0,60.0,30.03,NE,43,3.0,-999.0,64,-99.99,,,-99.99,,2013-04-04 01:22:00,
2013-04-03 15:32:00,73.0,60.0,30.02,NE,41,2.0,-999.0,64,-99.99,,,-99.99,,2013-04-04 01:32:00,
2013-04-03 15:42:00,73.0,60.0,30.02,NE,41,2.0,-999.0,64,-99.99,,,-99.99,,2013-04-04 01:42:00,
2013-04-03 15:52:00,73.0,60.0,30.02,ENE,60,2.0,-999.0,63,-99.99,,,-99.99,,2013-04-04 01:52:00,
2013-04-03 16:02:00,73.0,59.0,30.02,NNW,339,2.0,-999.0,62,-99.99,,,-99.99,,2013-04-04 02:02:00,
2013-04-03 16:12:00,73.0,59.0,30.02,NNW,339,2.0,-999.0,62,-99.99,,,-99.99,,2013-04-04 02:12:00,
2013-04-03 16:22:00,73.0,60.0,30.01,WSW,254,4.0,-999.0,63,-99.99,,,-99.99,,2013-04-04 02:22:00,
2013-04-03 16:32:00,74.0,61.0,30.01,NNW,330,5.0,-999.0,63,-99.99,,,-99.99,,2013-04-04 02:32:00,
2013-04-03 16:42:00,74.0,61.0,30.01,NNW,330,5.0,-999.0,63,-99.99,,,-99.99,,2013-04-04 02:42:00,
2013-04-03 16:52:00,74.0,61.0,30.01,NNW,330,5.0,-999.0,63,-99.99,,,-99.99,,2013-04-04 02:52:00,
2013-04-03 17:02:00,73.0,59.0,30.02,NNW,330,4.0,-999.0,62,-99.99,,,-99.99,,2013-04-04 03:02:00,
2013-04-03 17:11:00,73.0,59.0,30.02,NNW,330,4.0,-999.0,62,-99.99,,,-99.99,,2013-04-04 03:11:00,
2013-04-03 17:22:00,73.0,59.0,30.03,NW,323,4.0,-999.0,62,-99.99,,,-99.99,,2013-04-04 03:22:00,
2013-04-03 17:33:00,73.0,59.0,30.03,NNW,337,3.0,-999.0,62,-99.99,,,-99.99,,2013-04-04 03:33:00,
2013-04-03 17:43:00,73.0,59.0,30.03,NNW,337,3.0,-999.0,62,-99.99,,,-99.99,,2013-04-04 03:43:00,
2013-04-03 17:53:00,73.0,59.0,30.03,NW,306,3.0,-999.0,62,-99.99,,,-99.99,,2013-04-04 03:53:00,
2013-04-03 18:02:00,72.0,58.0,30.03,NW,314,2.0,-999.0,62,-99.99,,,-99.99,,2013-04-04 04:02:00,
2013-04-03 18:12:00,72.0,58.0,30.03,NW,314,2.0,-999.0,62,-99.99,,,-99.99,,2013-04-04 04:12:00,
2013-04-03 18:22:00,72.0,59.0,30.04,WNW,288,1.0,-999.0,63,-99.99,,,-99.99,,2013-04-04 04:22:00,
2013-04-03 18:33:00,71.0,59.0,30.04,WNW,284,2.0,-999.0,65,-99.99,,,-99.99,,2013-04-04 04:33:00,
2013-04-03 18:42:00,71.0,59.0,30.04,WNW,284,2.0,-999.0,65,-99.99,,,-99.99,,2013-04-04 04:42:00,
2013-04-03 18:52:00,71.0,59.0,30.05,NNW,344,2.0,-999.0,65,-99.99,,,-99.99,,2013-04-04 04:52:00,
2013-04-03 19:02:00,71.0,59.0,30.06,NW,311,1.0,-999.0,66,-99.99,,,-99.99,,2013-04-04 05:02:00,
2013-04-03 19:12:00,71.0,59.0,30.06,NW,311,1.0,-999.0,66,-99.99,,,-99.99,,2013-04-04 05:12:00,
2013-04-03 19:22:00,70.0,58.0,30.06,WNW,302,1.0,-999.0,66,-99.99,,,-99.99,,2013-04-04 05:22:00,
2013-04-03 19:32:00,70.0,59.0,30.07,WNW,302,0.0,-999.0,67,-99.99,,,-99.99,,2013-04-04 05:32:00,
2013-04-03 19:42:00,70.0,59.0,30.07,WNW,302,0.0,-999.0,67,-99.99,,,-99.99,,2013-04-04 05:42:00,
2013-04-03 19:52:00,70.0,59.0,30.07,WNW,302,0.0,-999.0,68,-99.99,,,-99.99,,2013-04-04 05:52:00,
2013-04-03 20:02:00,70.0,59.0,30.08,WNW,302,0.0,-999.0,69,-99.99,,,-99.99,,2013-04-04 06:02:00,
2013-04-03 20:12:00,70.0,59.0,30.08,WNW,302,0.0,-999.0,69,-99.99,,,-99.99,,2013-04-04 06:12:00,
2013-04-03 20:21:00,70.0,59.0,30.08,WNW,302,0.0,-999.0,69,-99.99,,,-99.99,,2013-04-04 06:21:00,
2013-04-03 20:32:00,69.0,59.0,30.09,WNW,302,0.0,-999.0,70,-99.99,,,-99.99,,2013-04-04 06:32:00,
2013-04-03 20:42:00,69.0,59.0,30.09,WNW,302,0.0,-999.0,70,-99.99,,,-99.99,,2013-04-04 06:42:00,
2013-04-03 20:52:00,69.0,59.0,30.09,WNW,302,0.0,-999.0,71,-99.99,,,-99.99,,2013-04-04 06:52:00,
2013-04-03 21:01:00,68.0,59.0,30.09,WNW,302,0.0,-999.0,73,-99.99,,,-99.99,,2013-04-04 07:01:00,
2013-04-03 21:12:00,68.0,59.0,30.09,WNW,302,0.0,-999.0,73,-99.99,,,-99.99,,2013-04-04 07:12:00,
2013-04-03 21:21:00,67.0,59.0,30.10,WNW,302,0.0,-999.0,75,-99.99,,,-99.99,,2013-04-04 07:21:00,
2013-04-03 21:32:00,67.0,59.0,30.10,WNW,302,0.0,-999.0,75,-99.99,,,-99.99,,2013-04-04 07:32:00,
2013-04-03 21:42:00,67.0,59.0,30.10,WNW,302,0.0,-999.0,75,-99.99,,,-99.99,,2013-04-04 07:42:00,
2013-04-03 21:52:00,66.0,59.0,30.11,NNE,13,0.0,-999.0,77,-99.99,,,-99.99,,2013-04-04 07:52:00,
2013-04-03 22:02:00,66.0,59.0,30.12,NNE,13,0.0,-999.0,78,-99.99,,,-99.99,,2013-04-04 08:02:00,
2013-04-03 22:12:00,66.0,59.0,30.12,NNE,13,0.0,-999.0,78,-99.99,,,-99.99,,2013-04-04 08:12:00,
2013-04-03 22:22:00,66.0,59.0,30.12,NNE,13,0.0,-999.0,78,-99.99,,,-99.99,,2013-04-04 08:22:00,
2013-04-03 22:32:00,66.0,59.0,30.13,ENE,69,0.0,-999.0,78,-99.99,,,-99.99,,2013-04-04 08:32:00,
2013-04-03 22:42:00,66.0,59.0,30.13,ENE,69,0.0,-999.0,78,-99.99,,,-99.99,,2013-04-04 08:42:00,
2013-04-03 22:52:00,66.0,59.0,30.12,East,86,1.0,-999.0,78,-99.99,,,-99.99,,2013-04-04 08:52:00,
2013-04-03 23:02:00,65.0,58.0,30.12,East,84,1.0,-999.0,78,-99.99,,,-99.99,,2013-04-04 09:02:00,
2013-04-03 23:12:00,65.0,58.0,30.12,East,84,1.0,-999.0,78,-99.99,,,-99.99,,2013-04-04 09:12:00,
2013-04-03 23:22:00,65.0,58.0,30.11,East,99,1.0,-999.0,78,-99.99,,,-99.99,,2013-04-04 09:22:00,
2013-04-03 23:33:00,65.0,58.0,30.11,ENE,78,0.0,-999.0,78,-99.99,,,-99.99,,2013-04-04 09:33:00,
2013-04-03 23:42:00,65.0,58.0,30.11,ENE,78,0.0,-999.0,78,-99.99,,,-99.99,,2013-04-04 09:42:00,
2013-04-03 23:52:00,65.0,58.0,30.11,ENE,69,0.0,-999.0,79,-99.99,,,-99.99,,2013-04-04 09:52:00,